Terminal Aerodrome Forecast
Issued by NWS

Home | Current Version | Previous Version | Text Only | Print | Product List | Glossary On
Versions: 1 2 3 4 5 6 7 8 9 10 11 12 13 14 15 16 17 18 19 20 21 22
764
FTUS46 KMFR 190538
TAFOTH
TAF
KOTH 190538Z 1906/2006 19014G23KT P6SM OVC025
     FM190800 19015G25KT 5SM -RA BR OVC015 WS020/20050KT
     FM191500 19015G25KT 3SM RA BR OVC015 WS020/21050KT
     FM192000 21020G30KT 3SM RA BR SCT007 OVC010
     FM192200 23012G20KT 5SM -RA BR OVC015
     FM200000 21012G20KT P6SM -SHRA SCT015 OVC025=

USA.gov is the U.S. government's official web portal to all federal, state and local government web resources and services.